[[{"header":{"parameterUnit":"m.s-1","parameterCategory":2,"la1":30.2991,"la2":30.254,"lo1":-89.0895,"lo2":-89.0444,"dy":0.0017,"dx":0.0017,"nx":28,"ny":28,"refTime":"2025-04-10T21:00:00:Z","depth":"0","parameterNumber":2,"parameterNumberName":"U-component_of_CURRENTS"},"data":[0,0,0,0,0,0,0,0,0,0,0,0,0,0,0,0,0,0,0,0,0,0,0,0,0,0,0,0,0,0,0,0,0,0,0,0,0,0,0,0,0,0,0,0,0,0,0,0,0,0,0,0,0,0,0,0,0,0,0.2071,0.2072,0,0.2122,0.2122,0.2123,0.2195,0.2196,0.2197,0.2198,0.2285,0.2287,0.2288,0,0,0,0,0,0,0,0,0,0,0,0,0,0.2055,0.2055,0.2071,0.2072,0.2072,0.2122,0.2122,0.2123,0.2195,0.2196,0.2197,0.2198,0.2285,0.2287,0.2288,0,0,0,0,0,0,0,0,0,0,0,0,0,0.2082,0.2055,0.2071,0.2112,0.2116,0.2121,0.2123,0.2124,0.2194,0.2196,0.2197,0.2199,0.2284,0.2286,0.2288,0.2271,0,0,0.2295,0.2296,0,0,0,0,0,0,0,0,0.208,0.2082,0.2106,0.2109,0.2114,0.2151,0.2149,0.2174,0.2194,0.2167,0.2198,0.22,0.2241,0.2247,0.2256,0.2275,0.2279,0.2295,0.2296,0.2297,0.2298,0,0,0,0,0,0,0,0.2078,0.2081,0.2094,0.2106,0.2111,0.2134,0.2139,0.2154,0.2198,0.217,0.2174,0.2176,0.2244,0.2254,0.2259,0.228,0.2295,0.2297,0.2298,0.2299,0.2418,0.242,0,0,0,0,0,0,0.2064,0.2079,0.2092,0.2095,0.2098,0.2132,0.2139,0.214,0.2197,0.2206,0.2174,0.2179,0.2249,0.2256,0.2262,0.23,0.2297,0.2299,0.23,0.2417,0.2419,0.2421,0,0,0,0,0,0,0.2064,0.2065,0.209,0.2086,0.2091,0.2131,0.2131,0.214,0.2155,0.2199,0.221,0.2182,0.2251,0.2259,0.231,0.2302,0.23,0.2302,0.2414,0.2417,0.242,0.2341,0,0,0,0,0,0,0.2063,0.2064,0.2061,0.2085,0.2091,0.2098,0.213,0.214,0.2152,0.2159,0.2209,0.2219,0.2253,0.2307,0.2312,0.2305,0.2304,0.2412,0.2416,0.2419,0.2341,0.234,0.234,0,0,0,0,0,0.2062,0.2057,0.2061,0.2063,0.2085,0.2097,0.2103,0.2138,0.2151,0.2157,0.2213,0.2217,0.2334,0.231,0.2316,0.2308,0.241,0.2415,0.2419,0.2341,0.234,0.234,0,0,0,0,0,0,0.205,0.2063,0.2069,0.2068,0.2081,0.2109,0.2116,0.213,0.2174,0.2186,0.2231,0.2245,0.2281,0.2321,0.2293,0.2364,0.2376,0.2382,0.2316,0.2315,0.2315,0.2277,0.2305,0,0,0,0,0,0.204,0.204,0.2056,0.2053,0.2059,0.2082,0.2091,0.2111,0.2148,0.2168,0.2197,0.2252,0.2301,0.2329,0.2367,0.2398,0.2405,0.2408,0.2407,0.2406,0.2386,0.2406,0.2403,0.2435,0.2435,0.2435,0,0,0.2032,0.204,0.2039,0.205,0.2064,0.2074,0.2093,0.2104,0.2115,0.2169,0.2194,0.2234,0.2309,0.235,0.2371,0.2383,0.2403,0.2412,0.241,0.239,0.2409,0.2405,0.2402,0.2438,0.2438,0.2437,0,0,0.2022,0.2024,0.2025,0.2035,0.205,0.2063,0.2063,0.2082,0.2098,0.2124,0.2175,0.2214,0.2278,0.2327,0.2365,0.2387,0.239,0.2412,0.2381,0.24,0.2396,0.2392,0.2386,0.2383,0.2423,0.2423,0.2422,0,0.2014,0.2018,0.2026,0.2034,0.2044,0.2056,0.2065,0.2076,0.2108,0.2126,0.213,0.2225,0.2264,0.2333,0.2342,0.2376,0.2385,0.2365,0.2392,0.2389,0.2386,0.2382,0.2378,0.2419,0.242,0.242,0.242,0,0.201,0.2015,0.2016,0.2031,0.204,0.2047,0.2062,0.207,0.208,0.2098,0.2139,0.2188,0.2253,0.227,0.2306,0.2327,0.2336,0.2371,0.2373,0.2377,0.2374,0.2371,0.2415,0.2416,0.2417,0.2418,0,0,0.199,0.2011,0.2012,0.2021,0.2041,0.2048,0.2062,0.2087,0.2109,0.2113,0.2143,0.219,0.2203,0.2247,0.2291,0.2295,0.2269,0.2317,0.2319,0.2274,0.229,0.2295,0.2293,0.2306,0.2306,0.2305,0.2289,0,0.1989,0.2001,0.2015,0.2026,0.2035,0.2056,0.2073,0.2095,0.2117,0.2143,0.217,0.2215,0.2203,0.2239,0.2232,0.2279,0.2263,0.2268,0.2326,0.2327,0.23,0.2291,0.229,0.2275,0.2287,0.2287,0.2287,0,0.1983,0.1994,0.2006,0.2034,0.2042,0.205,0.209,0.2109,0.2152,0.2173,0.22,0.2227,0.2245,0.2232,0.2245,0.2252,0.2246,0.2256,0.2257,0.2282,0.2328,0.2282,0.2272,0.2278,0.2284,0.2284,0.2284,0,0.1965,0.1988,0.1998,0.2005,0.2037,0.2051,0.2073,0.2118,0.2151,0.2196,0.223,0.2246,0.2279,0.226,0.2268,0.2261,0.2274,0.2284,0.2269,0.2269,0.2288,0.2291,0.2258,0.2258,0.2258,0.2258,0.2258,0,0.1956,0.1962,0.1989,0.1992,0.2015,0.2041,0.2079,0.211,0.2168,0.221,0.224,0.228,0.2286,0.2303,0.2275,0.2269,0.2283,0.2242,0.2264,0.2264,0.2265,0.229,0.2296,0.2257,0.2258,0.2258,0.2258,0,0.193,0.1947,0.196,0.1992,0.2005,0.2021,0.2083,0.2111,0.2174,0.2231,0.2249,0.2316,0.2341,0.234,0.2341,0.2304,0.2249,0.228,0.2265,0.2284,0.2259,0.2262,0.2104,0.2035,0.2243,0.2243,0.2243,0,0.1918,0.192,0.1953,0.1961,0.1973,0.2007,0.2032,0.2102,0.214,0.2249,0.2271,0.2337,0.238,0.2391,0.2359,0.2321,0.2253,0.2272,0.2246,0.2238,0.2258,0.2133,0.2076,0.2237,0.2237,0.2237,0.2237,0,0.1892,0.1903,0.1913,0.1933,0.1951,0.1982,0.2024,0.2058,0.214,0.2207,0.2287,0.2341,0.2395,0.2387,0.2365,0.2332,0.2209,0.2268,0.2275,0.2249,0.2095,0.2048,0.2253,0.2237,0.2237,0.2237,0.2237,0.2237,0.1869,0.187,0.1881,0.1896,0.1916,0.1932,0.194,0.2003,0.2067,0.215,0.2242,0.2323,0.2405,0.2396,0.2334,0.2287,0.2202,0.2243,0.2244,0.2112,0.2044,0.2228,0.2237,0.2237,0.2237,0.2237,0.2237,0,0.1829,0.183,0.1842,0.1848,0.1843,0.1876,0.1912,0.1918,0.1964,0.2097,0.2176,0.2303,0.2345,0.2364,0.2372,0.2304,0.2142,0.2249,0.2098,0.2039,0.2244,0.225,0.2245,0.2245,0.2245,0.2245,0.2245,0.2245,0.1805,0.179,0.1794,0.1766,0.1769,0.1746,0.175,0.1783,0.1866,0.1971,0.2068,0.2166,0.2356,0.2476,0.2446,0.2363,0.2186,0.2098,0.203,0.2259,0.2259,0.2258,0.2265,0.2263,0.2263,0.175,0.1747,0.1744]},{"header":{"parameterUnit":"m.s-1","parameterCategory":2,"la1":30.2991,"la2":30.254,"lo1":-89.0895,"lo2":-89.0444,"dy":0.0017,"dx":0.0017,"nx":28,"ny":28,"refTime":"2025-04-10T21:00:00:Z","depth":"0","parameterNumber":3,"parameterNumberName":"V-component_of_CURRENTS"},"data":[0,0,0,0,0,0,0,0,0,0,0,0,0,0,0,0,0,0,0,0,0,0,0,0,0,0,0,0,0,0,0,0,0,0,0,0,0,0,0,0,0,0,0,0,0,0,0,0,0,0,0,0,0,0,0,0,0,0,0.0141,0.0141,0,0.0099,0.0098,0.0097,0.0035,0.0035,0.0034,0.0034,-0.0101,-0.0104,-0.0107,0,0,0,0,0,0,0,0,0,0,0,0,0,0.011,0.0111,0.0141,0.0141,0.0141,0.0099,0.0098,0.0097,0.0036,0.0035,0.0034,0.0033,-0.01,-0.0103,-0.0107,0,0,0,0,0,0,0,0,0,0,0,0,0,0.0097,0.0111,0.0141,0.0109,0.0106,0.0099,0.0098,0.0097,0.0036,0.0035,0.0034,0.0033,-0.0098,-0.0103,-0.0107,-0.0118,0,0,-0.0121,-0.0123,0,0,0,0,0,0,0,0,0.0098,0.0097,0.0114,0.0111,0.0108,0.0076,0.0039,0.0022,0.0036,0.0057,0.0034,0.0033,-0.0046,-0.0055,-0.0067,-0.0124,-0.013,-0.0122,-0.0124,-0.0126,-0.0128,0,0,0,0,0,0,0,0.0099,0.0098,0.0119,0.0114,0.011,0.0078,0.0075,0.0035,0.0005,0.0055,0.0052,0.0056,-0.0049,-0.0062,-0.0071,-0.0132,-0.0121,-0.0125,-0.0128,-0.013,-0.0197,-0.0196,0,0,0,0,0,0,0.0119,0.01,0.012,0.0118,0.0107,0.008,0.0076,0.0083,0.0007,-0.0003,0.0057,0.0053,-0.0054,-0.0065,-0.0076,-0.0074,-0.0126,-0.013,-0.0133,-0.0198,-0.0197,-0.0196,0,0,0,0,0,0,0.0119,0.0121,0.0122,0.0112,0.011,0.0082,0.009,0.0083,0.0072,0.0011,-0.0003,0.0055,-0.0055,-0.0069,-0.0101,-0.0081,-0.0133,-0.0137,-0.0199,-0.0198,-0.0197,-0.0083,0,0,0,0,0,0,0.0118,0.0121,0.0128,0.0114,0.0112,0.0126,0.0091,0.0083,0.0079,0.0074,0.0005,-0.0009,-0.0057,-0.0094,-0.0106,-0.0088,-0.014,-0.0201,-0.0199,-0.0197,-0.0087,-0.0077,-0.0069,0,0,0,0,0,0.0117,0.0128,0.0128,0.0131,0.0123,0.0127,0.0123,0.0095,0.008,0.0081,0.0038,-0.0007,-0.0092,-0.0097,-0.0111,-0.0094,-0.0201,-0.0199,-0.0197,-0.0092,-0.0079,-0.0069,0,0,0,0,0,0,0.0113,0.0123,0.0123,0.0135,0.0138,0.0119,0.0116,0.0105,0.0073,0.0064,0.0003,-0.0013,-0.0034,-0.0078,-0.0082,-0.0108,-0.0153,-0.0153,-0.0068,-0.0057,-0.0048,-0.0038,-0.0144,0,0,0,0,0,0.0121,0.0133,0.0139,0.015,0.0154,0.014,0.0137,0.0124,0.01,0.0085,0.0045,-0.0002,-0.0035,-0.0057,-0.0098,-0.0112,-0.0149,-0.011,-0.01,-0.0092,-0.0093,-0.0113,-0.0105,-0.0189,-0.0189,-0.0189,0,0,0.0123,0.0131,0.0137,0.0151,0.0146,0.0159,0.0134,0.0137,0.0143,0.0075,0.0063,0.0027,-0.0032,-0.0046,-0.0059,-0.0081,-0.0086,-0.0089,-0.0081,-0.0088,-0.011,-0.0102,-0.0095,-0.0188,-0.0188,-0.0188,0,0,0.0137,0.0143,0.016,0.0167,0.0177,0.0173,0.0182,0.0175,0.0165,0.0159,0.0114,0.0099,0.0041,0.0015,-0.001,0.0027,-0.0036,0.001,0.0065,0.0047,0.0054,0.0059,0.003,0.0032,0.0016,0.0017,0.0017,0,0.0137,0.0164,0.0164,0.0182,0.0193,0.0186,0.0207,0.02,0.0184,0.0183,0.0166,0.0112,0.0073,0.0058,0.0076,0.0049,0.002,0.0031,0.0061,0.0065,0.0069,0.0038,0.0038,0.0022,0.0022,0.0021,0.002,0,0.0167,0.0186,0.0197,0.0222,0.0231,0.0248,0.0253,0.0257,0.0253,0.0247,0.0239,0.0198,0.0163,0.0161,0.0128,0.0138,0.0102,0.0077,0.0037,0.0085,0.0048,0.0047,0.003,0.0028,0.0027,0.0025,0,0,0.0174,0.0211,0.0215,0.0237,0.0256,0.0271,0.0286,0.0303,0.0316,0.0305,0.0314,0.0288,0.027,0.0242,0.0208,0.0203,0.0218,0.0159,0.0156,0.0138,0.0168,0.0131,0.0125,0.0198,0.0198,0.0198,0.0135,0,0.0199,0.0244,0.0253,0.0297,0.0324,0.0325,0.0343,0.0354,0.0355,0.0361,0.0336,0.0326,0.0298,0.0289,0.0283,0.0225,0.0218,0.0237,0.0116,0.0112,0.008,0.0124,0.0125,0.0067,0.0133,0.0133,0.0133,0,0.023,0.0259,0.0305,0.0348,0.0359,0.0379,0.0411,0.0428,0.0431,0.0429,0.0419,0.0386,0.0371,0.0344,0.0282,0.0292,0.0242,0.0204,0.02,0.0122,0.0073,0.0027,0.0062,-0.0059,0.013,0.013,0.013,0,0.0251,0.0298,0.0338,0.0353,0.0394,0.0412,0.0434,0.0449,0.0477,0.047,0.0481,0.0441,0.0425,0.0363,0.0281,0.028,0.0206,0.0188,0.0108,0.0104,0.0057,0.0049,-0.0033,0.0153,0.0153,0.0153,0.0153,0,0.0283,0.0316,0.0352,0.0377,0.0431,0.0443,0.0497,0.0507,0.053,0.057,0.0519,0.0532,0.0432,0.0372,0.0293,0.0192,0.0209,0.0122,0.0091,0.0097,0.0093,-0.0055,-0.0137,0.0151,0.0151,0.0152,0.0152,0,0.0307,0.0327,0.0382,0.0427,0.0446,0.0486,0.0552,0.0593,0.0598,0.0644,0.0642,0.06,0.0516,0.04,0.0289,0.021,0.0031,0.0072,0.0079,0.0051,-0.0132,-0.0208,-0.0346,-0.0428,-0.0022,-0.0023,-0.0024,0,0.0324,0.0354,0.0421,0.0461,0.0486,0.0547,0.0597,0.0628,0.068,0.0694,0.0725,0.0645,0.062,0.0426,0.0248,0.0082,-0.0026,-0.0023,-0.0016,-0.0139,-0.0247,-0.0286,-0.0348,-0.0033,-0.0034,-0.0035,-0.0036,0,0.0361,0.0383,0.0429,0.0513,0.0572,0.0647,0.0718,0.0772,0.081,0.0846,0.0877,0.0851,0.0641,0.0473,0.0218,0.0099,-0.0129,-0.0045,-0.0169,-0.026,-0.0313,-0.0407,-0.0007,-0.0043,-0.0043,-0.0042,-0.0042,-0.0041,0.0387,0.0429,0.0493,0.0574,0.0645,0.0741,0.0822,0.0898,0.0988,0.1061,0.1011,0.1013,0.072,0.0373,0.0164,-0.0204,-0.0204,-0.0279,-0.036,-0.0387,-0.0468,-0.0091,-0.0165,-0.0165,-0.0165,-0.0165,-0.0165,0,0.0425,0.0476,0.0554,0.0655,0.0742,0.0773,0.0903,0.0994,0.1116,0.1177,0.1209,0.1065,0.0719,0.0346,-0.0158,-0.0433,-0.0538,-0.0594,-0.0645,-0.0693,-0.0349,-0.035,-0.0472,-0.0471,-0.0471,-0.0471,-0.0471,-0.0471,0.0446,0.0526,0.0571,0.072,0.0795,0.0932,0.1018,0.1147,0.1238,0.1333,0.1338,0.1298,0.0993,0.0094,-0.0526,-0.0695,-0.0923,-0.0976,-0.1092,-0.0848,-0.0824,-0.0801,-0.082,-0.1038,-0.1038,-0.1383,-0.1386,-0.1389]}],[{"header":{"parameterUnit":"m.s-1","parameterCategory":2,"la1":30.2991,"la2":30.254,"lo1":-89.0895,"lo2":-89.0444,"dy":0.0017,"dx":0.0017,"nx":28,"ny":28,"refTime":"2025-04-10T21:00:00:Z","depth":"2","parameterNumber":2,"parameterNumberName":"U-component_of_CURRENTS"},"data":[0,0,0,0,0,0,0,0,0,0,0,0,0,0,0,0,0,0,0,0,0,0,0,0,0,0,0,0,0,0,0,0,0,0,0,0,0,0,0,0,0,0,0,0,0,0,0,0,0,0,0,0,0,0,0,0,0,0,0.1983,0.1983,0,0.2033,0.2034,0.2034,0.2109,0.211,0.2111,0.2112,0.2204,0.2206,0.2207,0,0,0,0,0,0,0,0,0,0,0,0,0,0.197,0.197,0.1983,0.1983,0.1984,0.2033,0.2034,0.2035,0.2109,0.211,0.2111,0.2113,0.2204,0.2206,0.2207,0,0,0,0,0,0,0,0,0,0,0,0,0,0.1996,0.197,0.1983,0.2025,0.2029,0.2033,0.2034,0.2035,0.2109,0.211,0.2112,0.2113,0.2203,0.2205,0.2208,0.219,0,0,0.2214,0.2215,0,0,0,0,0,0,0,0,0.1994,0.1996,0.2018,0.2022,0.2026,0.2064,0.2063,0.2088,0.2108,0.2081,0.2112,0.2114,0.2158,0.2164,0.2174,0.2194,0.2198,0.2215,0.2216,0.2217,0.2217,0,0,0,0,0,0,0,0.1992,0.1995,0.2006,0.2018,0.2023,0.2047,0.2052,0.2068,0.2113,0.2084,0.2088,0.2089,0.2161,0.2171,0.2176,0.2199,0.2214,0.2216,0.2218,0.2219,0.2349,0.2351,0,0,0,0,0,0,0.1978,0.1993,0.2004,0.2007,0.2011,0.2045,0.2052,0.2052,0.2112,0.2122,0.2088,0.2092,0.2167,0.2174,0.218,0.2222,0.2217,0.2219,0.222,0.2347,0.235,0.2352,0,0,0,0,0,0,0.1977,0.1978,0.2002,0.1999,0.2003,0.2043,0.2044,0.2053,0.2071,0.2114,0.2126,0.2097,0.2168,0.2177,0.223,0.2224,0.222,0.2222,0.2345,0.2348,0.2351,0.2268,0,0,0,0,0,0,0.1976,0.1978,0.1976,0.1998,0.2003,0.2011,0.2042,0.2052,0.2066,0.2073,0.2126,0.2136,0.217,0.2227,0.2232,0.2227,0.2224,0.2342,0.2346,0.235,0.2268,0.2268,0.2268,0,0,0,0,0,0.1976,0.1971,0.1975,0.1977,0.1998,0.201,0.2015,0.2051,0.2065,0.2073,0.2129,0.2135,0.2257,0.223,0.2236,0.2231,0.234,0.2345,0.235,0.2268,0.2268,0.2268,0,0,0,0,0,0,0.1966,0.1978,0.1984,0.1983,0.1995,0.2022,0.203,0.2045,0.209,0.2104,0.2148,0.2163,0.2203,0.2244,0.2213,0.2291,0.2304,0.231,0.224,0.224,0.224,0.22,0.2225,0,0,0,0,0,0.1958,0.1958,0.1971,0.1969,0.1975,0.1998,0.2007,0.2027,0.2065,0.2086,0.2116,0.2173,0.2224,0.2254,0.2294,0.2328,0.2334,0.2341,0.234,0.234,0.2319,0.2337,0.2334,0.2368,0.2368,0.2368,0,0,0.195,0.1957,0.1957,0.1967,0.1981,0.199,0.2009,0.2021,0.2032,0.2087,0.2113,0.2156,0.2234,0.2277,0.2301,0.2312,0.2337,0.2346,0.2343,0.2323,0.2341,0.2337,0.2333,0.2371,0.2371,0.237,0,0,0.1941,0.1944,0.1945,0.1955,0.1969,0.1982,0.1982,0.2001,0.2018,0.2045,0.2097,0.2139,0.2206,0.2256,0.2296,0.2322,0.2325,0.235,0.2319,0.2336,0.2331,0.2328,0.2322,0.2319,0.2361,0.2361,0.2361,0,0.1935,0.1939,0.1947,0.1954,0.1964,0.1977,0.1985,0.1996,0.2029,0.2047,0.2052,0.2152,0.2193,0.2264,0.2276,0.2311,0.232,0.2299,0.2328,0.2325,0.2322,0.2318,0.2314,0.2358,0.2358,0.2358,0.2359,0,0.1931,0.1937,0.1938,0.1953,0.1962,0.1969,0.1983,0.1991,0.2002,0.2019,0.2063,0.2114,0.2183,0.2202,0.224,0.2262,0.2272,0.2307,0.2306,0.2311,0.2309,0.2307,0.2353,0.2354,0.2355,0.2356,0,0,0.1914,0.1933,0.1935,0.1944,0.1963,0.197,0.1984,0.2008,0.203,0.2035,0.2065,0.2117,0.2131,0.2177,0.2224,0.2228,0.2201,0.2251,0.2253,0.2205,0.222,0.2224,0.2222,0.2236,0.2236,0.2236,0.2221,0,0.1913,0.1925,0.1938,0.1949,0.1958,0.1978,0.1995,0.2017,0.2039,0.2065,0.2093,0.2141,0.2131,0.2169,0.2162,0.2211,0.2194,0.22,0.2257,0.2258,0.2227,0.2219,0.2042,0.2014,0.2219,0.2218,0.2218,0,0.1909,0.1919,0.1931,0.1957,0.1964,0.1974,0.2013,0.2031,0.2074,0.2095,0.2123,0.2151,0.2171,0.2159,0.2173,0.218,0.2175,0.2186,0.2187,0.2212,0.2258,0.205,0.2003,0.2215,0.2215,0.2215,0.2215,0,0.1892,0.1914,0.1923,0.1931,0.1961,0.1976,0.1997,0.2041,0.2074,0.2119,0.2153,0.217,0.2205,0.2185,0.2195,0.2188,0.22,0.2211,0.2196,0.2196,0.2066,0.2057,0.2185,0.2185,0.2185,0.2185,0.2185,0,0.1883,0.189,0.1915,0.1919,0.1942,0.1967,0.2005,0.2036,0.2093,0.2134,0.2165,0.2203,0.221,0.2227,0.22,0.2194,0.2208,0.2168,0.219,0.2038,0.2026,0.2226,0.2232,0.2184,0.2184,0.2184,0.2184,0,0.186,0.1876,0.1889,0.192,0.1932,0.1949,0.201,0.2038,0.21,0.2156,0.2174,0.2239,0.2264,0.2263,0.2264,0.2227,0.2214,0.2204,0.2015,0.2015,0.2185,0.2187,0.2167,0.2167,0.2167,0.2167,0.2167,0,0.1848,0.1851,0.1884,0.1891,0.1904,0.1938,0.1962,0.2031,0.2067,0.2173,0.2194,0.2259,0.2295,0.2305,0.224,0.2194,0.223,0.2011,0.1963,0.2158,0.2182,0.2184,0.2186,0.1748,0.1745,0.1742,0.174,0,0.1824,0.1836,0.1845,0.1865,0.1884,0.1912,0.1953,0.1986,0.2067,0.2127,0.2203,0.225,0.2271,0.216,0.2124,0.207,0.2005,0.1956,0.2203,0.1804,0.1769,0.1792,0.1805,0.1714,0.1717,0.1719,0.172,0.1721,0.1803,0.1804,0.1815,0.183,0.1849,0.1863,0.187,0.1913,0.1969,0.2005,0.2113,0.2097,0.2091,0.195,0.1866,0.1773,0.1913,0.1794,0.18,0.1809,0.1787,0.1757,0.1693,0.1695,0.1697,0.1699,0.1701,0,0.1758,0.1765,0.1776,0.1782,0.1767,0.181,0.1842,0.1806,0.1822,0.1866,0.1903,0.1723,0.1668,0.1645,0.147,0.1465,0.1413,0.1396,0.1301,0.1329,0.1353,0.1305,0.1084,0.1082,0.108,0.1078,0,0,0.1733,0.1714,0.1717,0.1683,0.1692,0.1646,0.1648,0.1604,0.1596,0.1537,0.1502,0.1598,0.1631,0.134,0.1296,0.1162,0.1235,0.1114,0.1615,0.1534,0.1555,0.1596,0.1556,0,0,0,0,0]},{"header":{"parameterUnit":"m.s-1","parameterCategory":2,"la1":30.2991,"la2":30.254,"lo1":-89.0895,"lo2":-89.0444,"dy":0.0017,"dx":0.0017,"nx":28,"ny":28,"refTime":"2025-04-10T21:00:00:Z","depth":"2","parameterNumber":3,"parameterNumberName":"V-component_of_CURRENTS"},"data":[0,0,0,0,0,0,0,0,0,0,0,0,0,0,0,0,0,0,0,0,0,0,0,0,0,0,0,0,0,0,0,0,0,0,0,0,0,0,0,0,0,0,0,0,0,0,0,0,0,0,0,0,0,0,0,0,0,0,0.0202,0.0202,0,0.0161,0.016,0.0159,0.0098,0.0098,0.0097,0.0097,-0.0036,-0.0039,-0.0042,0,0,0,0,0,0,0,0,0,0,0,0,0,0.0172,0.0173,0.0202,0.0202,0.0202,0.0161,0.016,0.0159,0.0099,0.0098,0.0097,0.0096,-0.0035,-0.0039,-0.0042,0,0,0,0,0,0,0,0,0,0,0,0,0,0.0159,0.0173,0.0202,0.0171,0.0168,0.0161,0.016,0.0159,0.0099,0.0098,0.0097,0.0096,-0.0034,-0.0038,-0.0043,-0.0053,0,0,-0.0056,-0.0058,0,0,0,0,0,0,0,0,0.016,0.0159,0.0175,0.0173,0.017,0.0139,0.0101,0.0085,0.0099,0.0119,0.0097,0.0096,0.0018,0.0009,-0.0003,-0.0059,-0.0064,-0.0057,-0.0059,-0.0061,-0.0063,0,0,0,0,0,0,0,0.0161,0.0161,0.018,0.0176,0.0172,0.014,0.0137,0.0098,0.0068,0.0118,0.0114,0.0118,0.0015,0.0002,-0.0007,-0.0066,-0.0057,-0.0061,-0.0063,-0.0065,-0.0134,-0.0133,0,0,0,0,0,0,0.0181,0.0162,0.0182,0.018,0.0168,0.0142,0.0138,0.0145,0.0071,0.0061,0.0119,0.0116,0.001,-0.0001,-0.0012,-0.001,-0.0061,-0.0066,-0.0068,-0.0135,-0.0133,-0.0133,0,0,0,0,0,0,0.018,0.0183,0.0184,0.0174,0.0172,0.0144,0.0152,0.0145,0.0134,0.0074,0.0061,0.0117,0.0009,-0.0005,-0.0037,-0.0017,-0.0068,-0.0072,-0.0136,-0.0134,-0.0133,-0.0019,0,0,0,0,0,0,0.018,0.0183,0.0189,0.0175,0.0174,0.0187,0.0153,0.0145,0.0141,0.0135,0.0067,0.0054,0.0007,-0.003,-0.0042,-0.0024,-0.0075,-0.0137,-0.0135,-0.0133,-0.0024,-0.0014,-0.0006,0,0,0,0,0,0.0179,0.019,0.019,0.0192,0.0185,0.0188,0.0184,0.0157,0.0142,0.0142,0.01,0.0056,-0.0028,-0.0033,-0.0047,-0.003,-0.0137,-0.0135,-0.0134,-0.0028,-0.0016,-0.0006,0,0,0,0,0,0,0.0175,0.0185,0.0184,0.0197,0.0199,0.018,0.0178,0.0167,0.0135,0.0125,0.0065,0.005,0.0029,-0.0015,-0.0019,-0.0045,-0.0089,-0.009,-0.0004,0.0006,0.0015,0.0026,-0.0079,0,0,0,0,0,0.0183,0.0195,0.0201,0.0211,0.0215,0.0201,0.0197,0.0185,0.0161,0.0146,0.0106,0.006,0.0027,0.0005,-0.0035,-0.0049,-0.0086,-0.0047,-0.0038,-0.003,-0.0031,-0.005,-0.0042,-0.0126,-0.0126,-0.0126,0,0,0.0186,0.0193,0.0199,0.0212,0.0208,0.022,0.0194,0.0198,0.0204,0.0136,0.0124,0.0088,0.003,0.0016,0.0003,-0.0019,-0.0024,-0.0027,-0.002,-0.0026,-0.0047,-0.0039,-0.0031,-0.0125,-0.0125,-0.0125,0,0,0.02,0.0206,0.0222,0.0229,0.0238,0.0233,0.0242,0.0234,0.0225,0.0218,0.0174,0.0159,0.0101,0.0076,0.0052,0.0087,0.0025,0.007,0.0124,0.0107,0.0114,0.012,0.0091,0.0093,0.0076,0.0076,0.0076,0,0.02,0.0227,0.0226,0.0244,0.0255,0.0247,0.0267,0.0261,0.0244,0.0243,0.0225,0.0172,0.0132,0.012,0.0136,0.011,0.008,0.0091,0.0121,0.0125,0.0129,0.0098,0.0099,0.0081,0.0081,0.008,0.008,0,0.023,0.025,0.026,0.0284,0.0294,0.031,0.0314,0.0318,0.0313,0.0307,0.0299,0.0257,0.0223,0.022,0.0188,0.0198,0.0162,0.0137,0.0098,0.0145,0.0109,0.0108,0.009,0.0088,0.0086,0.0084,0,0,0.0238,0.0275,0.0279,0.0301,0.0318,0.0333,0.0348,0.0365,0.0378,0.0366,0.0376,0.0349,0.033,0.0302,0.0268,0.0264,0.0279,0.022,0.0216,0.02,0.023,0.0192,0.0186,0.0259,0.0259,0.0259,0.0197,0,0.0264,0.0309,0.0318,0.0361,0.0388,0.0389,0.0407,0.0417,0.0417,0.0423,0.0398,0.0388,0.0359,0.0349,0.0343,0.0286,0.028,0.0297,0.0178,0.0174,0.0142,0.0185,0.0212,0.0157,0.0195,0.0195,0.0195,0,0.0295,0.0323,0.037,0.0413,0.0424,0.0444,0.0476,0.0492,0.0495,0.0492,0.0482,0.0449,0.0434,0.0406,0.0344,0.0354,0.0303,0.0266,0.0262,0.0183,0.0134,0.0113,0.0153,0.0192,0.0192,0.0192,0.0193,0,0.0316,0.0363,0.0403,0.0417,0.0459,0.0476,0.0498,0.0513,0.0541,0.0533,0.0544,0.0504,0.0487,0.0427,0.0343,0.0342,0.0269,0.0252,0.0171,0.0167,0.0143,0.0136,0.0218,0.0218,0.0218,0.0218,0.0218,0,0.0348,0.0381,0.0417,0.0441,0.0495,0.0507,0.0561,0.057,0.0593,0.0632,0.0581,0.0594,0.0495,0.0435,0.0357,0.0255,0.0273,0.0185,0.0154,0.0183,0.0181,0.0167,0.0162,0.0216,0.0216,0.0217,0.0217,0,0.0371,0.0391,0.0446,0.0491,0.0509,0.0549,0.0614,0.0656,0.066,0.0705,0.0703,0.066,0.0576,0.0461,0.0352,0.0274,0.0177,0.0136,0.0169,0.0143,0.0083,0.0084,0.0045,0.0044,0.0042,0.0041,0.004,0,0.0388,0.0417,0.0484,0.0524,0.0548,0.0608,0.0658,0.069,0.0741,0.0754,0.0784,0.0704,0.0677,0.0485,0.0317,0.0154,0.0142,0.0068,0.0078,0.0094,0.0068,0.0072,0.0075,0.0092,0.0091,0.0091,0.009,0,0.0423,0.0445,0.0491,0.0573,0.0632,0.0707,0.0778,0.0831,0.0869,0.0902,0.093,0.0903,0.0702,0.0541,0.0291,0.0187,0.0093,0.0053,0.0067,0.0129,0.0132,0.0108,0.0111,0.0087,0.0087,0.0087,0.0087,0.0088,0.0449,0.049,0.0553,0.0633,0.0703,0.0799,0.0879,0.0953,0.104,0.11,0.1051,0.1013,0.08,0.0491,0.0275,0.0043,0.0065,0.0006,0.001,0.0014,0.0028,0.0029,-0.0034,-0.0035,-0.0035,-0.0035,-0.0035,0,0.0488,0.0536,0.0612,0.0712,0.0801,0.083,0.0958,0.1046,0.1161,0.1183,0.1203,0.1006,0.0794,0.0534,0.0196,0.0003,0.0005,-0.0065,-0.0009,-0.0004,0.0001,0.0016,-0.0051,-0.0052,-0.0052,-0.0053,0,0,0.051,0.0589,0.0634,0.0781,0.0853,0.0993,0.1077,0.1195,0.1255,0.1305,0.1267,0.1187,0.087,0.0622,0.0346,0.0146,0.012,0.0108,0.0146,0.0251,0.0258,0.0069,0.0101,0,0,0,0,0]}],[{"header":{"parameterUnit":"m.s-1","parameterCategory":2,"la1":30.2991,"la2":30.254,"lo1":-89.0895,"lo2":-89.0444,"dy":0.0017,"dx":0.0017,"nx":28,"ny":28,"refTime":"2025-04-10T21:00:00:Z","depth":"4","parameterNumber":2,"parameterNumberName":"U-component_of_CURRENTS"},"data":[0,0,0,0,0,0,0,0,0,0,0,0,0,0,0,0,0,0,0,0,0,0,0,0,0,0,0,0,0,0,0,0,0,0,0,0,0,0,0,0,0,0,0,0,0,0,0,0,0,0,0,0,0,0,0,0,0,0,0.1162,0.1162,0,0.1169,0.1169,0.1169,0.1199,0.12,0.1201,0.1202,0.1233,0.1232,0.1232,0,0,0,0,0,0,0,0,0,0,0,0,0,0.1124,0.1125,0.1162,0.1163,0.1163,0.117,0.1169,0.1169,0.1199,0.12,0.1202,0.1203,0.1233,0.1232,0.1232,0,0,0,0,0,0,0,0,0,0,0,0,0,0.1131,0.1125,0.1162,0.1183,0.1186,0.117,0.1169,0.1168,0.1198,0.12,0.1202,0.1204,0.1233,0.1232,0.1232,0.1191,0,0,0.123,0.123,0,0,0,0,0,0,0,0,0.1131,0.1132,0.118,0.1182,0.1185,0.119,0.1167,0.1179,0.1198,0.1187,0.1202,0.1205,0.1223,0.1223,0.1212,0.1193,0.1194,0.123,0.123,0.123,0.123,0,0,0,0,0,0,0,0.113,0.1132,0.1159,0.118,0.1183,0.1176,0.1179,0.1169,0.119,0.1188,0.1192,0.1202,0.1224,0.1212,0.1213,0.1194,0.123,0.123,0.1229,0.1229,0.1277,0.1278,0,0,0,0,0,0,0.1142,0.1131,0.1159,0.116,0.1169,0.1176,0.1179,0.1182,0.119,0.1195,0.12,0.1203,0.1212,0.1214,0.1214,0.1285,0.123,0.1229,0.1229,0.1275,0.1277,0.1279,0,0,0,0,0,0,0.1141,0.1144,0.1158,0.1151,0.1153,0.1176,0.1178,0.1181,0.1205,0.12,0.1204,0.1226,0.1214,0.1215,0.1253,0.1283,0.1229,0.1228,0.1273,0.1276,0.1278,0.1352,0,0,0,0,0,0,0.114,0.1143,0.1156,0.1151,0.1154,0.1174,0.1177,0.118,0.1209,0.1213,0.1222,0.1225,0.1215,0.1255,0.1253,0.1281,0.1228,0.1271,0.1274,0.1277,0.1347,0.1356,0.1364,0,0,0,0,0,0.1138,0.1145,0.1157,0.1161,0.1169,0.1175,0.1175,0.1193,0.1209,0.122,0.1244,0.1227,0.1272,0.1255,0.1253,0.1282,0.127,0.1274,0.1277,0.1344,0.1355,0.1364,0,0,0,0,0,0,0.1135,0.1149,0.1162,0.1174,0.1189,0.1183,0.1198,0.1209,0.1231,0.1249,0.1244,0.1248,0.1285,0.1277,0.1258,0.1306,0.1268,0.1272,0.132,0.133,0.1338,0.1316,0.1228,0,0,0,0,0,0.1141,0.1153,0.1165,0.1179,0.1189,0.1198,0.1208,0.1223,0.1239,0.1251,0.1262,0.1277,0.1288,0.1308,0.1305,0.1334,0.1315,0.1353,0.1361,0.1368,0.135,0.137,0.1378,0.1291,0.129,0.129,0,0,0.1145,0.1156,0.1164,0.1181,0.1191,0.1205,0.1208,0.1234,0.1254,0.125,0.1289,0.1299,0.1299,0.1332,0.1349,0.1339,0.1386,0.1373,0.1379,0.1356,0.1374,0.1383,0.139,0.1293,0.1292,0.1292,0,0,0.1151,0.1169,0.1181,0.1195,0.1225,0.123,0.1247,0.1264,0.1286,0.1323,0.1326,0.1356,0.1379,0.1383,0.1388,0.1438,0.1419,0.1455,0.1491,0.1513,0.152,0.1526,0.1519,0.1523,0.1473,0.1473,0.1473,0,0.1161,0.1174,0.1187,0.1202,0.1221,0.1246,0.1266,0.1281,0.1314,0.1338,0.1352,0.1392,0.1393,0.1426,0.1451,0.1453,0.1462,0.1455,0.1523,0.1528,0.1533,0.1524,0.1528,0.1477,0.1477,0.1476,0.1476,0,0.1167,0.119,0.12,0.1228,0.1248,0.1271,0.1299,0.133,0.1367,0.1387,0.1439,0.1447,0.1474,0.1488,0.1487,0.1528,0.1522,0.1522,0.1495,0.1546,0.1534,0.1537,0.1483,0.1481,0.148,0.1479,0,0,0.1158,0.1197,0.1205,0.1225,0.1268,0.1281,0.1326,0.1367,0.1405,0.1447,0.1492,0.1517,0.1535,0.1539,0.1549,0.1571,0.1613,0.1575,0.1574,0.1562,0.1658,0.1564,0.1557,0.1647,0.1647,0.1648,0.1639,0,0.1165,0.1195,0.1217,0.1256,0.1273,0.1315,0.1351,0.1398,0.1445,0.1494,0.1521,0.1562,0.1553,0.1585,0.1605,0.161,0.1624,0.1614,0.1613,0.1611,0.1518,0.1558,0.1651,0.164,0.1641,0.1641,0.1642,0,0.1162,0.1184,0.1222,0.1273,0.1288,0.132,0.1391,0.1428,0.1499,0.154,0.1591,0.1614,0.1649,0.1638,0.1661,0.1668,0.1662,0.1658,0.1658,0.1537,0.1522,0.1577,0.1646,0.1646,0.1645,0.1645,0.1645,0,0.1136,0.1187,0.1219,0.1236,0.1297,0.1336,0.1379,0.1452,0.1496,0.1577,0.1621,0.1663,0.1697,0.1702,0.1699,0.1697,0.1716,0.1708,0.1606,0.1599,0.1653,0.1647,0.171,0.171,0.171,0.171,0.171,0,0.1119,0.1148,0.1216,0.123,0.1282,0.1333,0.1401,0.1452,0.1535,0.1582,0.1647,0.1679,0.1723,0.1741,0.172,0.1669,0.1734,0.1599,0.1592,0.1686,0.1683,0.1655,0.1649,0.171,0.171,0.171,0.171,0,0.1079,0.1123,0.1164,0.124,0.127,0.131,0.1411,0.145,0.1541,0.1605,0.1635,0.1714,0.1732,0.1748,0.1754,0.1688,0.1651,0.1616,0.1706,0.1706,0.151,0.1508,0.1485,0.1482,0.1479,0.1477,0.1475,0,0.1057,0.1075,0.1163,0.1189,0.123,0.1301,0.1344,0.1445,0.1485,0.1603,0.1617,0.1686,0.1716,0.164,0.167,0.1619,0.1597,0.1559,0.1527,0.1492,0.1488,0.1491,0.1492,0.147,0.147,0.1469,0.1468,0,0.1013,0.1058,0.1091,0.1148,0.1199,0.1246,0.1317,0.134,0.1444,0.1542,0.1557,0.156,0.1578,0.1569,0.1552,0.1513,0.1573,0.1529,0.1534,0.1503,0.1473,0.1473,0.1478,0.1458,0.146,0.146,0.1461,0,0.0987,0.0998,0.1048,0.1088,0.1147,0.1163,0.1213,0.1251,0.1304,0.143,0.1431,0.1493,0.1568,0.1514,0.1496,0.1457,0.142,0.1351,0.1365,0.1376,0.1344,0.1291,0.1206,0,0,0,0,0,0.0947,0.0946,0.0979,0.101,0.1065,0.1095,0.1177,0.1226,0.133,0.1303,0.1363,0.137,0.1354,0.1388,0.1321,0.1434,0.1422,0.1348,0.135,0.1403,0.1415,0.1386,0,0,0,0,0,0,0.0917,0.0944,0.095,0.0936,0.094,0.0984,0.1028,0.1098,0.1089,0.12,0.1199,0.1278,0.1284,0.1372,0.1292,0.1299,0.1267,0.1391,0.1387,0.1397,0.1407,0.1416,0.1391,0,0,0,0,0]},{"header":{"parameterUnit":"m.s-1","parameterCategory":2,"la1":30.2991,"la2":30.254,"lo1":-89.0895,"lo2":-89.0444,"dy":0.0017,"dx":0.0017,"nx":28,"ny":28,"refTime":"2025-04-10T21:00:00:Z","depth":"4","parameterNumber":3,"parameterNumberName":"V-component_of_CURRENTS"},"data":[0,0,0,0,0,0,0,0,0,0,0,0,0,0,0,0,0,0,0,0,0,0,0,0,0,0,0,0,0,0,0,0,0,0,0,0,0,0,0,0,0,0,0,0,0,0,0,0,0,0,0,0,0,0,0,0,0,0,0.0263,0.0263,0,0.0238,0.0237,0.0237,0.0212,0.0212,0.0212,0.0212,0.0154,0.0153,0.0151,0,0,0,0,0,0,0,0,0,0,0,0,0,0.0246,0.0247,0.0263,0.0263,0.0263,0.0238,0.0237,0.0237,0.0212,0.0212,0.0212,0.0212,0.0155,0.0153,0.0151,0,0,0,0,0,0,0,0,0,0,0,0,0,0.0238,0.0247,0.0263,0.025,0.0248,0.0238,0.0237,0.0237,0.0212,0.0212,0.0212,0.0212,0.0155,0.0153,0.0151,0.0139,0,0,0.0144,0.0143,0,0,0,0,0,0,0,0,0.0239,0.0238,0.0252,0.025,0.0249,0.0231,0.021,0.0203,0.0212,0.0223,0.0212,0.0212,0.0179,0.0175,0.0167,0.0137,0.0134,0.0144,0.0143,0.0142,0.0141,0,0,0,0,0,0,0,0.0239,0.0239,0.025,0.0252,0.025,0.023,0.0229,0.0209,0.0199,0.0222,0.0221,0.0223,0.0177,0.0169,0.0165,0.0133,0.0144,0.0142,0.0141,0.014,0.0134,0.0135,0,0,0,0,0,0,0.025,0.024,0.0251,0.025,0.0247,0.0231,0.023,0.0234,0.02,0.0196,0.0223,0.0222,0.0173,0.0168,0.0163,0.0173,0.0142,0.014,0.0138,0.0133,0.0134,0.0135,0,0,0,0,0,0,0.025,0.0252,0.0252,0.0246,0.0245,0.0232,0.0237,0.0234,0.0232,0.0201,0.0196,0.0225,0.0172,0.0166,0.0151,0.017,0.0139,0.0137,0.0131,0.0133,0.0135,0.0178,0,0,0,0,0,0,0.025,0.0252,0.0259,0.0247,0.0246,0.0254,0.0237,0.0234,0.0234,0.0232,0.0201,0.0195,0.0172,0.0155,0.0149,0.0166,0.0135,0.013,0.0132,0.0134,0.0175,0.0181,0.0186,0,0,0,0,0,0.0249,0.026,0.026,0.0261,0.0257,0.0255,0.0253,0.0241,0.0234,0.0237,0.0215,0.0197,0.0165,0.0153,0.0146,0.0164,0.0129,0.0131,0.0134,0.0172,0.0179,0.0185,0,0,0,0,0,0,0.0257,0.0259,0.0258,0.0269,0.0267,0.0252,0.0256,0.0247,0.0232,0.0231,0.0199,0.0192,0.0184,0.0173,0.016,0.0172,0.0149,0.015,0.0181,0.0187,0.0192,0.0206,0.0133,0,0,0,0,0,0.0263,0.0273,0.027,0.028,0.0282,0.0271,0.0269,0.0262,0.0249,0.0242,0.0221,0.0205,0.0189,0.0187,0.0166,0.017,0.0151,0.0183,0.0188,0.0193,0.0202,0.0186,0.0191,0.0144,0.0144,0.0144,0,0,0.027,0.0272,0.0278,0.0282,0.028,0.0288,0.0269,0.0273,0.0279,0.0238,0.0238,0.0214,0.0192,0.0191,0.019,0.0186,0.0196,0.0196,0.02,0.0207,0.0189,0.0194,0.0197,0.0146,0.0145,0.0145,0,0,0.0287,0.029,0.0304,0.0306,0.031,0.0304,0.031,0.0301,0.0298,0.0294,0.0267,0.0261,0.0238,0.0231,0.0223,0.0251,0.0216,0.0248,0.0295,0.028,0.0283,0.0286,0.0263,0.0263,0.0263,0.0263,0.0263,0,0.0294,0.0313,0.0307,0.0321,0.0328,0.0316,0.0333,0.0328,0.0315,0.0316,0.0303,0.0278,0.0261,0.0263,0.0277,0.0263,0.0242,0.0268,0.0286,0.0288,0.029,0.0265,0.0265,0.0265,0.0265,0.0265,0.0264,0,0.0321,0.0337,0.0346,0.0361,0.0367,0.0379,0.0377,0.038,0.0375,0.0368,0.0365,0.0338,0.0328,0.0327,0.031,0.0324,0.0298,0.0282,0.0265,0.0297,0.0269,0.0268,0.0268,0.0268,0.0267,0.0266,0,0,0.0337,0.0361,0.0365,0.0383,0.0391,0.04,0.0414,0.0424,0.0437,0.0423,0.0434,0.0419,0.0403,0.0396,0.0373,0.0373,0.037,0.0343,0.0341,0.0314,0.0326,0.0292,0.0287,0.0349,0.0349,0.035,0.0298,0,0.0362,0.0397,0.0401,0.0437,0.0457,0.0454,0.0469,0.0475,0.0473,0.0478,0.0459,0.0454,0.0429,0.0426,0.042,0.0375,0.037,0.0385,0.0305,0.0303,0.0264,0.0286,0.035,0.0297,0.0297,0.0297,0.0297,0,0.039,0.0411,0.0449,0.0482,0.0491,0.0509,0.0535,0.0547,0.0547,0.0544,0.0537,0.0508,0.05,0.0475,0.0424,0.0429,0.0389,0.0357,0.0353,0.0308,0.0267,0.0261,0.0294,0.0294,0.0295,0.0295,0.0295,0,0.0409,0.0447,0.0481,0.0492,0.0523,0.0542,0.0559,0.0569,0.059,0.0586,0.0592,0.0561,0.0548,0.0495,0.0424,0.0423,0.0358,0.0344,0.0275,0.0272,0.0296,0.0294,0.0316,0.0316,0.0316,0.0316,0.0316,0,0.0434,0.0464,0.0496,0.0516,0.0563,0.0571,0.0618,0.0626,0.0643,0.067,0.0629,0.0631,0.0553,0.05,0.0435,0.0346,0.0361,0.0287,0.0261,0.0315,0.0316,0.0295,0.0293,0.0314,0.0315,0.0315,0.0315,0,0.0451,0.047,0.0517,0.0557,0.0575,0.061,0.0665,0.0698,0.0701,0.0731,0.0731,0.0686,0.0611,0.0519,0.0426,0.0361,0.0279,0.0244,0.0304,0.028,0.0201,0.0202,0.0169,0.0167,0.0166,0.0165,0.0164,0,0.0462,0.0487,0.0549,0.0583,0.0606,0.0659,0.07,0.0728,0.0762,0.0764,0.0779,0.0712,0.0666,0.0506,0.0408,0.0263,0.0244,0.0196,0.0211,0.021,0.0188,0.0191,0.0194,0.0162,0.0161,0.0161,0.0161,0,0.0484,0.0508,0.0545,0.0616,0.0668,0.0731,0.0786,0.0814,0.084,0.0842,0.0812,0.0722,0.063,0.0503,0.038,0.0282,0.0224,0.0182,0.0184,0.0198,0.0202,0.0181,0.0185,0.0156,0.0157,0.0157,0.0158,0,0.05,0.0532,0.0585,0.0646,0.0714,0.0778,0.0809,0.0841,0.0869,0.0861,0.0849,0.0741,0.0683,0.0513,0.0406,0.0294,0.0272,0.024,0.0239,0.0242,0.0274,0.029,0.0255,0,0,0,0,0,0.0513,0.0551,0.0612,0.0682,0.0751,0.0795,0.0857,0.088,0.09,0.0882,0.0865,0.0774,0.0601,0.0531,0.0414,0.0385,0.0255,0.0244,0.0218,0.0132,0.0137,0.0158,0,0,0,0,0,0,0.0522,0.0578,0.0611,0.0698,0.0753,0.0835,0.0878,0.0895,0.0883,0.0876,0.0788,0.0739,0.0576,0.0667,0.041,0.0376,0.0341,0.0166,0.0163,0.0129,0.0133,0.0137,0.0161,0,0,0,0,0]}]]